Regional Weather Roundup
Issued by NWS Kansas City/Pleasant Hill, MO

Home | Current Version | Previous Version | Graphics & Text | Print | Product List | Glossary Off
Versions: 1 2 3 4 5 6 7 8 9 10 11 12 13 14 15 16 17 18 19 20 21 22 23 24 25 26 27 28 29 30 31 32 33 34 35 36 37 38 39 40 41 42 43 44 45 46 47 48 49 50

000
ASUS43 KEAX 070610
RWREAX

WEATHER ROUNDUP FOR EASTERN KANSAS AND NORTHWEST MISSOURI
NATIONAL WEATHER SERVICE KANSAS CITY/PLEASANT HILL MO
100 AM CDT TUE JUL 07 2015

KSZ040-057-103>105-MOZ028-029-037-043-070700-
...KANSAS CITY METROPOLITAN AREA...

CITY           SKY/WX    TMP DP  RH WIND       PRES   REMARKS
K.C. INTL      LGT RAIN  67  66  97 N15       29.96R FOG
6HR MIN TEMP:  67; 6HR MAX TEMP:  73; 6HR PCP:  0.15;

K.C. DOWNTOWN  LGT RAIN  71  69  93 N8        29.94R FOG
6HR MIN TEMP:  71; 6HR MAX TEMP:  73; 6HR PCP:  0.07;

LEES SUMMIT    LGT RAIN  71  70  96 CALM      29.96R FOG
6HR MIN TEMP:  71; 6HR MAX TEMP:  72; 6HR PCP:  0.32;

OLATHE - IXD   CLOUDY    71  70  96 NW10      29.96S FOG
6HR MIN TEMP:  71; 6HR MAX TEMP:  72; 6HR PCP:  0.20;

OLATHE - OJC   RAIN      71  71 100 S5        29.95S FOG
6HR MIN TEMP:  70; 6HR MAX TEMP:  71; 6HR PCP:  0.26;

LAWRENCE       LGT RAIN  68  65  90 N10G24    29.96S FOG

$$

MOZ001>008-011>017-020>025-030>033-038>040-044>046-053-054-070700-
...NORTHERN AND CENTRAL MISSOURI...

CITY           SKY/WX    TMP DP  RH WIND       PRES   REMARKS
ST. JOSEPH     RAIN      64  61  90 MISG      30.00R FOG
6HR MIN TEMP:  64; 6HR MAX TEMP:  73; 6HR PCP:  0.52;

MOSBY          LGT RAIN  70  70 100 N12G17    29.94R
WARRENSBURG    CLOUDY    70  70 100 SW7       29.94R
WHITEMAN AFB   DRIZZLE   72  72  99 W10       29.92S
6HR MIN TEMP:  72; 6HR MAX TEMP:  81;

CLINTON        DRIZZLE   73  73 100 W9        29.95S
SEDALIA        CLOUDY    73  70  90 W8        29.93F
6HR MIN TEMP:  73; 6HR MAX TEMP:  83; 6HR PCP:  0.12;

WARSAW         NOT AVBL
CHILLICOTHE      N/A     69  65  86 N12G21    29.95R
6HR MIN TEMP:  69; 6HR MAX TEMP:  74; 6HR PCP:  0.39;

KIRKSVILLE     LGT RAIN  68  66  93 N16G24    29.92R FOG
6HR MIN TEMP:  68; 6HR MAX TEMP:  77; 6HR PCP:  0.34;


$$

MOZ041-047>049-056>058-063>065-088>090-097-070700-
...EASTERN AND SOUTHERN MISSOURI...

CITY           SKY/WX    TMP DP  RH WIND       PRES   REMARKS
ST. LOUIS INTL CLOUDY    81  73  76 S13       29.89F
6HR MIN TEMP:  81; 6HR MAX TEMP:  85;

SPIRIT OF STL  CLOUDY    79  74  84 S9        29.87F
COLUMBIA       CLOUDY    72  70  93 NW10      29.90R
JEFFERSON CITY LGT RAIN  75  70  84 W12       29.90R
ROLLA          CLOUDY    77  72  84 S13       29.92S
OSAGE BEACH    CLOUDY    72  68  88 NW6       29.94R
SPRINGFIELD    CLOUDY    77  71  82 SW8       29.95F
BRANSON        CLOUDY    77  68  73 S3        29.98F
JOPLIN         RAIN      70  69  97 SE5       29.95F
WEST PLAINS    CLOUDY    77  71  82 S10       29.99F

$$

IAZ060-094-KSZ022-034>040-054-083-096-NEZ052-066-093-070700-
...KANSAS...SOUTHEAST NEBRASKA AND IOWA...

CITY           SKY/WX    TMP DP  RH WIND       PRES   REMARKS
TOPEKA         HVY RAIN  65  64  97 N18G25    29.99R FOG
6HR MIN TEMP:  65; 6HR MAX TEMP:  73; 6HR PCP:  0.89;

MANHATTAN      CLOUDY    70  63  78 NE13      30.01R HAZE
EMPORIA        LGT RAIN  66  65  96 N15G23    29.98R FOG
CHANUTE        LGT RAIN  73  72  96 CALM      29.94F
WICHITA        HVY RAIN  72  70  93 N8        29.96S FOG
OMAHA          PTCLDY    64  56  75 N13       30.07R
LINCOLN        MOCLDY    63  59  87 N12       30.09R FOG
FALLS CITY     CLOUDY    68  61  78 N8        30.01R HAZE
LAMONI         CLOUDY    66  60  81 N12       29.99R HAZE
DES MOINES     CLOUDY    66  59  78 N8        30.00R HAZE

$$




USA.gov is the U.S. government's official web portal to all federal, state and local government web resources and services.